This is the latest recevied weather packets stored in our database for station/object WX7FGZ-7. If no packets are shown the sender has not sent any weather packets the latest 10 day(s).
| Time | Temp. | Humidity | Pressure | Rain* | Wind** | Luminosity | Snow |
|---|---|---|---|---|---|---|---|
| 1777877532 | 15° C | 50% | 1014.5 hPa | 0 mm | - | - | - |
| 1777877241 | 15° C | 49% | 1014.5 hPa | 0 mm | - | - | - |
| 1777876941 | 15° C | 47% | 1014.5 hPa | 0 mm | - | - | - |
| 1777876638 | 15° C | 47% | 1014.3 hPa | 0 mm | - | - | - |
| 1777875917 | 13.89° C | 40% | 1014.4 hPa | 0 mm | - | - | - |
| 1777875909 | 13.89° C | 45% | 1014.4 hPa | 0 mm | - | - | - |
| 1777875896 | 13.89° C | 48% | 1014.3 hPa | 0 mm | - | - | - |
| 1777875737 | 15° C | 45% | 1014.2 hPa | 0 mm | - | - | - |
| 1777875441 | 14.44° C | 42% | 1014.2 hPa | 0 mm | - | - | - |
| 1777875402 | 13.89° C | 40% | 1014.4 hPa | 0 mm | - | - | - |
| 1777875132 | 13.89° C | 40% | 1014.4 hPa | 0 mm | - | - | - |
| 1777875125 | 13.89° C | 45% | 1014.4 hPa | 0 mm | - | - | - |
| 1777874837 | 13.89° C | 45% | 1014.4 hPa | 0 mm | - | - | - |
| 1777874538 | 13.89° C | 48% | 1014.3 hPa | 0 mm | - | - | - |
| 1777874236 | 14.44° C | 49% | 1014.3 hPa | 0 mm | - | - | - |
| 1777873942 | 14.44° C | 49% | 1014.4 hPa | 0 mm | - | - | - |
| 1777873640 | 14.44° C | 48% | 1014.5 hPa | 0 mm | - | - | - |
| 1777873358 | 15° C | 51% | 1014.7 hPa | 0 mm | - | - | - |
| 1777873339 | 15° C | 51% | 1014.7 hPa | 0 mm | - | - | - |
| 1777873034 | 15° C | 51% | 1014.7 hPa | 0 mm | - | - | - |
| 1777872880 | 15° C | 49% | 1014.6 hPa | 0 mm | - | - | - |
| 1777872732 | 15° C | 49% | 1014.6 hPa | 0 mm | - | - | - |
| 1777872429 | 15.56° C | 50% | 1014.8 hPa | 0 mm | - | - | - |
| 1777872132 | 15.56° C | 50% | 1014.8 hPa | 0 mm | - | - | - |
| 1777872013 | 15.56° C | 49% | 1014.7 hPa | 0 mm | - | - | - |
* Rain latest hour (hover to see other rain measurements)
** Current wind speed in m/s (hover to see current wind gust speed)